When you browse on this site, cookies collect data to enhance your experience and personalize the content and advertising you see.
Visit our Privacy Policy to learn more. By continuing to use the site, you agree to this use of cookies and data.
  • In Switzerland
  • List of Countries
  • For 7 days
  • Water Temperature
  • Satellite Maps
  • Weather Map
  • Weather Widgets
  • user-avatar
    Login

    Hourly Weather Tomashivka

    Today, 20 July, Saturday

    Time Temperature Precipitation Wind Pressure Humidity
    00:00 +15°C° 0 mm 0 mps 735 mmHg 80%
    01:00 +15°C° 0 mm 0 mps 735 mmHg 80%
    02:00 +16°C° 0 mm 1 mps 735 mmHg 78%
    03:00 +16°C° 0 mm 1 mps 735 mmHg 79%
    04:00 +16°C° 0 mm 1 mps 735 mmHg 79%
    05:00 +16°C° 0 mm 1 mps 735 mmHg 80%
    06:00 +18°C° 0 mm 1 mps 735 mmHg 78%
    07:00 +19°C° 0 mm 1 mps 736 mmHg 75%
    08:00 +22°C° 0 mm 1 mps 736 mmHg 75%
    09:00 +23°C° 0 mm 1 mps 736 mmHg 70%
    10:00 +24°C° 0 mm 2 mps 736 mmHg 65%
    11:00 +26°C° 0 mm 2 mps 736 mmHg 60%
    12:00 +26°C° 0.1 mm 2 mps 736 mmHg 57%
    13:00 +27°C° 0.1 mm 2 mps 736 mmHg 54%
    14:00 +27°C° 0.1 mm 2 mps 736 mmHg 52%
    15:00 +27°C° 0 mm 2 mps 736 mmHg 54%
    16:00 +27°C° 0 mm 2 mps 736 mmHg 55%
    17:00 +27°C° 0 mm 1 mps 736 mmHg 57%
    18:00 +25°C° 0.5 mm 2 mps 736 mmHg 66%
    19:00 +21°C° 0.5 mm 2 mps 736 mmHg 75%
    20:00 +19°C° 0.5 mm 3 mps 735 mmHg 84%
    21:00 +19°C° 0.3 mm 2 mps 735 mmHg 85%
    22:00 +18°C° 0.3 mm 2 mps 736 mmHg 85%
    23:00 +18°C° 0.3 mm 2 mps 736 mmHg 86%

    Tomorrow, 21 July, Sunday

    Time Temperature Precipitation Wind Pressure Humidity
    00:00 +18°C° 0 mm 2 mps 736 mmHg 87%
    01:00 +18°C° 0 mm 1 mps 736 mmHg 87%
    02:00 +18°C° 0 mm 1 mps 736 mmHg 88%
    03:00 +18°C° 0 mm 1 mps 735 mmHg 88%
    04:00 +18°C° 0 mm 1 mps 735 mmHg 88%
    05:00 +16°C° 0 mm 1 mps 735 mmHg 88%
    06:00 +19°C° 0 mm 1 mps 735 mmHg 84%
    07:00 +21°C° 0 mm 1 mps 735 mmHg 79%
    08:00 +23°C° 0 mm 1 mps 736 mmHg 75%
    09:00 +24°C° 0 mm 1 mps 736 mmHg 70%
    10:00 +25°C° 0 mm 2 mps 736 mmHg 66%
    11:00 +26°C° 0 mm 2 mps 736 mmHg 61%
    12:00 +27°C° 0 mm 2 mps 736 mmHg 59%
    13:00 +27°C° 0 mm 2 mps 736 mmHg 56%
    14:00 +28°C° 0 mm 2 mps 736 mmHg 54%
    15:00 +28°C° 0 mm 2 mps 735 mmHg 55%
    16:00 +28°C° 0 mm 2 mps 735 mmHg 56%
    17:00 +28°C° 0 mm 2 mps 735 mmHg 57%
    18:00 +26°C° 0.3 mm 2 mps 735 mmHg 64%
    19:00 +24°C° 0.3 mm 1 mps 735 mmHg 70%
    20:00 +23°C° 0.3 mm 1 mps 735 mmHg 77%
    21:00 +22°C° 0 mm 1 mps 735 mmHg 77%
    22:00 +22°C° 0 mm 1 mps 735 mmHg 78%
    23:00 +22°C° 0 mm 1 mps 736 mmHg 79%

    Day after tomorrow, 22 July, Monday

    Time Temperature Precipitation Wind Pressure Humidity
    00:00 +21°C° 0.5 mm 1 mps 735 mmHg 83%
    01:00 +19°C° 0.5 mm 2 mps 735 mmHg 88%
    02:00 +19°C° 0.5 mm 2 mps 735 mmHg 92%
    03:00 +18°C° 0.1 mm 3 mps 735 mmHg 93%
    04:00 +18°C° 0.1 mm 3 mps 735 mmHg 93%
    05:00 +18°C° 0.1 mm 3 mps 735 mmHg 93%
    06:00 +19°C° 0 mm 3 mps 735 mmHg 90%
    07:00 +20°C° 0 mm 4 mps 735 mmHg 88%
    08:00 +21°C° 0 mm 4 mps 735 mmHg 85%
    09:00 +22°C° 0.1 mm 4 mps 736 mmHg 80%
    10:00 +23°C° 0.1 mm 4 mps 736 mmHg 76%
    11:00 +25°C° 0.1 mm 4 mps 736 mmHg 71%
    12:00 +25°C° 0.9 mm 4 mps 736 mmHg 71%
    13:00 +25°C° 0.9 mm 4 mps 736 mmHg 71%
    14:00 +25°C° 0.9 mm 4 mps 736 mmHg 71%
    15:00 +25°C° 0.3 mm 5 mps 736 mmHg 71%
    16:00 +25°C° 0.3 mm 5 mps 736 mmHg 71%
    17:00 +23°C° 0.3 mm 5 mps 736 mmHg 72%
    18:00 +22°C° 0 mm 4 mps 736 mmHg 77%
    19:00 +21°C° 0 mm 4 mps 736 mmHg 82%
    20:00 +19°C° 0 mm 3 mps 736 mmHg 87%
    21:00 +18°C° 0 mm 3 mps 736 mmHg 89%
    22:00 +18°C° 0 mm 4 mps 736 mmHg 90%
    23:00 +17°C° 0 mm 4 mps 736 mmHg 92%

    23 July, Tuesday

    Time Temperature Precipitation Wind Pressure Humidity
    00:00 +15°C° 0 mm 4 mps 736 mmHg 93%
    01:00 +15°C° 0 mm 4 mps 736 mmHg 94%
    02:00 +14°C° 0 mm 3 mps 736 mmHg 95%
    03:00 +14°C° 0 mm 3 mps 736 mmHg 95%
    04:00 +14°C° 0 mm 3 mps 736 mmHg 96%
    05:00 +14°C° 0 mm 4 mps 736 mmHg 96%
    06:00 +15°C° 0 mm 4 mps 736 mmHg 88%
    07:00 +16°C° 0 mm 5 mps 736 mmHg 80%
    08:00 +17°C° 0 mm 5 mps 736 mmHg 73%
    09:00 +19°C° 0 mm 6 mps 736 mmHg 69%
    10:00 +20°C° 0 mm 6 mps 736 mmHg 65%
    11:00 +21°C° 0 mm 6 mps 736 mmHg 61%
    12:00 +21°C° 0 mm 6 mps 736 mmHg 61%
    13:00 +22°C° 0 mm 6 mps 735 mmHg 60%
    14:00 +22°C° 0 mm 6 mps 735 mmHg 60%
    15:00 +22°C° 0 mm 6 mps 735 mmHg 61%
    16:00 +22°C° 0 mm 5 mps 735 mmHg 62%
    17:00 +22°C° 0 mm 5 mps 735 mmHg 63%
    18:00 +20°C° 0 mm 4 mps 735 mmHg 69%
    19:00 +19°C° 0 mm 4 mps 734 mmHg 75%
    20:00 +18°C° 0 mm 3 mps 734 mmHg 81%
    21:00 +17°C° 0 mm 3 mps 734 mmHg 82%
    22:00 +17°C° 0 mm 2 mps 735 mmHg 84%
    23:00 +17°C° 0 mm 2 mps 735 mmHg 85%

    24 July, Wednesday

    Time Temperature Precipitation Wind Pressure Humidity
    00:00 +17°C° 0.8 mm 3 mps 734 mmHg 88%
    01:00 +16°C° 0.8 mm 3 mps 734 mmHg 91%
    02:00 +15°C° 0.8 mm 4 mps 734 mmHg 95%
    03:00 +15°C° 0.3 mm 4 mps 734 mmHg 95%
    04:00 +15°C° 0.3 mm 5 mps 734 mmHg 95%
    05:00 +15°C° 0.3 mm 5 mps 733 mmHg 95%
    06:00 +16°C° 0.1 mm 5 mps 734 mmHg 94%
    07:00 +16°C° 0.1 mm 5 mps 734 mmHg 93%
    08:00 +17°C° 0.1 mm 5 mps 734 mmHg 92%
    09:00 +17°C° 0.1 mm 5 mps 734 mmHg 90%
    10:00 +19°C° 0.1 mm 5 mps 734 mmHg 88%
    11:00 +19°C° 0.1 mm 5 mps 734 mmHg 86%
    12:00 +20°C° 0.1 mm 5 mps 734 mmHg 82%
    13:00 +21°C° 0.1 mm 5 mps 734 mmHg 78%
    14:00 +22°C° 0.1 mm 6 mps 734 mmHg 73%
    15:00 +22°C° 0 mm 5 mps 734 mmHg 73%
    16:00 +23°C° 0 mm 5 mps 734 mmHg 73%
    17:00 +23°C° 0 mm 5 mps 734 mmHg 72%
    18:00 +22°C° 0.1 mm 4 mps 734 mmHg 78%
    19:00 +21°C° 0.1 mm 3 mps 734 mmHg 83%
    20:00 +20°C° 0.1 mm 2 mps 734 mmHg 89%
    21:00 +19°C° 0.2 mm 2 mps 735 mmHg 90%
    22:00 +19°C° 0.2 mm 2 mps 735 mmHg 91%
    23:00 +18°C° 0.2 mm 3 mps 735 mmHg 92%

    25 July, Thursday

    Time Temperature Precipitation Wind Pressure Humidity
    00:00 +18°C° 0 mm 3 mps 735 mmHg 93%
    01:00 +17°C° 0 mm 3 mps 735 mmHg 94%
    02:00 +17°C° 0 mm 3 mps 735 mmHg 94%
    03:00 +17°C° 0 mm 3 mps 735 mmHg 95%
    04:00 +17°C° 0 mm 3 mps 735 mmHg 95%
    05:00 +16°C° 0 mm 3 mps 735 mmHg 95%
    06:00 +18°C° 0 mm 3 mps 735 mmHg 91%
    07:00 +19°C° 0 mm 4 mps 735 mmHg 88%
    08:00 +21°C° 0 mm 4 mps 735 mmHg 85%
    09:00 +22°C° 0.1 mm 5 mps 735 mmHg 79%
    10:00 +23°C° 0.1 mm 5 mps 735 mmHg 74%
    11:00 +25°C° 0.1 mm 5 mps 735 mmHg 69%
    12:00 +26°C° 0.1 mm 5 mps 735 mmHg 67%
    13:00 +27°C° 0.1 mm 5 mps 735 mmHg 65%
    14:00 +27°C° 0.1 mm 5 mps 735 mmHg 63%
    15:00 +27°C° 0.1 mm 5 mps 735 mmHg 64%
    16:00 +27°C° 0.1 mm 5 mps 734 mmHg 65%
    17:00 +27°C° 0.1 mm 4 mps 734 mmHg 66%
    18:00 +25°C° 0.1 mm 4 mps 734 mmHg 73%
    19:00 +24°C° 0.1 mm 3 mps 734 mmHg 79%
    20:00 +21°C° 0.1 mm 2 mps 734 mmHg 85%
    21:00 +21°C° 0 mm 2 mps 734 mmHg 86%
    22:00 +20°C° 0 mm 3 mps 734 mmHg 88%
    23:00 +19°C° 0 mm 3 mps 734 mmHg 90%
    Show more